Wind_Speed
98 98 97 97 97 102 105 107 110 108 110 96 106 110 107 104 101 98 96 93 90 90 85 83 84 84 86 87 90 94 97 100 103 106 113 117 117 114 110 109 108 107 109 109
102 101 103 102 101 106 111 115 118 118 112 110 106 105 100 98 95 95 95 93 89 86 85 87 88 87 88 89 92 95 96 97 98 95 93 96 96 93 92 90 87 85 85 86
107 108 111 108 105 114 118 121 122 120 116 109 103 98 96 94 92 92 93 91 88 87 87 87 89 88 89 90 93 90 89 91 87 86 84 81 79 80 80 77 75 72 71 71
115 118 121 112 113 115 118 119 122 117 110 106 104 97 92 90 89 90 89 89 89 90 89 88 87 86 85 85 85 85 86 83 83 79 77 74 70 72 71 69 66 64 63 63
122 122 123 117 120 122 123 116 116 114 112 106 98 94 90 90 89 90 90 89 88 88 89 87 84 85 87 86 83 81 80 77 77 75 72 68 67 66 65 62 59 58 56 55
122 124 124 114 109 111 113 106 104 102 98 94 93 91 90 90 90 87 85 85 86 88 87 86 86 87 84 82 79 76 75 72 70 65 61 58 57 57 55 53 52 48 46 48
116 117 108 101 101 108 110 101 98 95 94 91 88 86 85 84 84 84 83 83 85 86 85 85 84 81 79 77 72 65 62 61 61 58 54 50 48 49 47 46 45 42 39 41
107 107 100 92 95 94 94 90 89 87 84 83 84 83 82 83 83 83 83 84 86 82 80 79 78 75 72 70 66 61 56 56 56 55 51 45 43 44 43 41 40 39 37 38
89 89 83 74 78 84 84 83 85 82 79 75 78 78 80 79 79 79 78 78 78 77 74 75 71 69 67 66 63 58 56 54 52 53 50 44 42 42 44 41 39 39 37 37
86 78 80 76 76 79 79 78 77 76 74 74 76 78 76 73 72 74 71 69 70 72 71 70 67 62 64 61 56 53 51 50 50 50 51 47 44 44 44 44 41 40 39 41
72 68 75 71 72 74 75 72 72 69 72 73 73 75 72 68 68 68 66 63 65 67 66 64 62 59 55 52 52 49 45 46 47 49 48 44 43 44 44 45 43 42 43 43
71 73 73 63 67 67 67 68 69 68 67 68 66 67 67 61 61 62 62 60 59 59 57 55 51 50 50 49 44 42 44 43 45 46 44 38 36 40 44 44 44 45 45 45
65 71 66 60 64 67 63 62 61 59 56 57 61 64 60 60 60 57 55 53 51 49 47 46 46 47 44 42 41 40 42 42 39 40 41 39 35 37 42 43 43 44 44 44
62 62 58 57 54 58 58 59 59 54 51 50 54 55 51 54 54 51 48 45 42 42 41 40 40 42 39 36 36 38 40 38 34 35 35 34 32 34 37 41 41 43 43 41
56 53 50 50 50 52 53 55 53 51 51 48 47 47 44 46 44 42 40 36 37 36 38 39 38 36 35 34 35 34 35 34 30 29 29 29 30 32 34 35 42 43 42 43
50 49 46 42 42 42 43 45 44 43 43 44 44 39 39 39 36 36 35 33 34 35 34 34 32 31 32 31 30 28 28 28 28 27 25 25 26 28 30 33 36 41 45 46
45 43 40 39 37 36 37 37 36 37 39 38 37 35 33 32 31 31 32 33 34 34 31 30 30 28 27 25 24 23 22 22 23 22 21 21 22 24 27 30 34 39 44 47
37 38 37 36 35 33 33 33 34 34 35 34 32 29 28 29 30 30 32 33 31 30 28 28 27 24 21 19 18 18 19 20 19 18 19 20 21 23 25 28 31 34 37 40
32 30 30 30 30 29 29 29 30 31 29 30 30 30 29 29 28 27 28 27 27 25 25 23 21 18 16 16 15 17 19 19 19 20 21 23 24 26 28 31 33 35 38 41
28 27 26 26 26 26 27 27 28 28 28 29 30 30 27 24 25 25 25 24 23 24 21 17 17 15 14 14 16 18 20 21 22 23 25 27 29 32 35 36 38 41 43 45
23 21 21 22 22 22 22 22 23 26 30 31 31 28 25 24 24 23 23 22 21 19 16 15 14 14 13 14 18 20 22 23 25 26 28 30 33 36 39 41 43 45 45 46
20 18 18 18 19 20 21 22 24 28 29 28 25 23 21 21 20 19 18 18 19 15 14 13 14 13 13 17 20 23 24 26 27 29 31 33 35 38 41 43 43 44 44 43
17 19 20 20 20 20 22 26 28 26 24 22 20 18 18 19 18 16 16 16 15 13 12 13 13 13 16 19 22 24 26 27 29 30 32 35 37 40 42 42 42 41 41 40
20 21 22 23 23 24 25 25 25 23 22 19 18 18 18 15 13 13 13 13 12 12 14 13 13 15 18 21 23 25 26 28 29 32 34 37 39 41 41 40 39 38 38 38
21 21 20 20 22 24 23 23 21 21 19 19 18 17 15 14 13 13 12 12 13 14 13 13 15 17 19 22 24 25 26 28 30 33 36 38 40 40 40 39 37 36 36 36
19 19 20 20 20 21 21 21 23 21 19 18 18 16 15 14 14 14 14 14 15 15 14 14 16 17 19 22 23 24 26 28 31 34 38 40 41 41 41 39 39 37 36 35
20 19 19 18 19 20 21 21 21 20 18 19 18 17 16 16 16 16 16 15 16 15 14 15 17 19 20 21 23 25 28 30 33 36 39 41 42 42 41 39 38 38 36 35
Wind_Direction
273 273 274 276 279 281 283 283 282 283 284 285 286 286 287 289 288 287 287 287 287 285 283 281 281 280 279 279 279 279 279 278 276 276 275 275 276 276 276 274 273 272 271 270
270 272 274 275 278 279 281 281 282 285 289 288 284 286 286 286 285 286 286 288 288 288 287 287 289 286 284 284 285 285 285 282 280 280 280 278 279 281 279 276 274 273 271 269
272 273 274 276 278 279 280 283 285 284 285 285 287 286 286 286 286 287 288 289 288 287 286 285 285 282 282 283 283 284 282 282 284 282 281 281 281 279 279 279 277 273 270 268
274 275 276 277 279 280 281 281 282 284 285 285 285 287 286 285 286 287 287 287 287 286 285 286 284 284 284 284 284 285 286 286 286 286 286 285 284 281 279 278 278 274 268 263
272 275 277 279 279 280 280 280 282 284 284 286 287 287 287 285 285 285 285 285 285 285 285 285 286 286 286 288 288 289 288 287 286 287 285 284 281 279 278 277 274 271 269 264
273 274 276 277 277 276 278 279 279 279 282 283 283 283 283 284 284 283 283 283 282 281 282 285 286 286 288 290 290 290 286 284 283 283 282 281 278 277 276 274 274 272 269 263
274 274 274 278 276 274 274 276 278 278 279 279 280 281 281 280 280 280 280 280 279 280 283 285 286 287 288 286 284 282 282 285 287 285 283 281 279 277 276 275 274 270 266 262
272 273 275 275 273 273 273 274 272 272 274 276 277 276 277 278 277 277 278 279 281 283 284 284 284 285 285 287 288 288 287 288 286 284 283 281 279 278 276 274 272 270 265 261
274 275 273 271 270 268 268 270 272 272 273 274 274 273 272 272 275 276 277 278 280 282 282 284 284 286 287 286 287 290 288 285 283 282 281 278 277 274 274 273 270 270 268 267
276 277 274 272 270 269 269 270 272 275 276 275 274 274 275 276 276 276 276 277 280 280 282 283 284 286 284 287 289 285 283 283 281 277 278 276 274 274 271 272 268 265 263 261
275 275 273 272 269 268 271 273 273 272 272 271 270 271 273 274 275 277 278 277 276 277 280 283 286 285 284 285 283 284 284 280 280 279 280 282 280 274 272 270 268 264 261 259
274 273 272 275 273 272 269 268 267 266 268 271 273 275 274 275 274 275 275 276 277 280 283 284 283 284 282 281 284 288 287 285 283 285 286 285 277 273 274 271 272 269 263 260
272 271 271 269 268 269 271 271 271 271 270 271 271 271 274 274 273 273 274 277 278 280 279 278 277 277 282 287 288 289 291 290 290 285 281 282 275 268 267 271 270 272 271 270
267 267 270 268 268 270 272 271 270 271 270 268 268 269 269 268 270 273 275 278 279 277 277 277 278 281 282 286 294 295 293 293 291 286 284 278 272 267 267 270 272 271 272 273
266 266 265 265 264 261 261 262 264 264 264 268 270 268 270 272 273 274 278 279 278 278 278 279 282 284 288 294 294 293 292 293 292 288 286 281 274 269 268 269 271 274 273 274
269 269 267 267 264 263 263 263 264 267 267 266 269 271 269 270 272 274 275 276 273 272 276 280 284 290 293 293 292 291 291 293 293 288 286 283 278 272 269 270 272 275 279 280
265 268 269 267 263 261 260 260 261 262 263 263 266 268 268 270 270 271 273 272 275 278 279 285 289 292 290 287 288 289 292 293 292 293 292 288 282 278 275 273 273 273 274 276
264 264 265 265 265 263 263 263 260 259 261 265 268 270 269 267 266 264 266 270 275 276 283 290 286 281 280 284 286 291 293 292 295 298 299 296 292 289 286 284 282 280 278 277
262 264 264 262 261 260 260 260 261 262 263 265 266 265 264 266 268 269 269 271 272 281 278 272 273 273 273 274 284 289 291 295 298 299 298 297 296 294 291 288 286 284 282 281
259 259 257 258 259 259 259 258 261 262 262 263 264 264 267 268 266 266 265 266 267 266 258 260 261 259 265 279 288 289 292 295 297 299 300 302 301 300 298 296 294 291 290 288
254 253 255 257 259 261 264 263 260 258 259 263 271 279 280 273 266 265 262 261 253 247 247 246 250 259 271 282 287 289 292 294 297 299 302 303 303 302 300 299 297 295 293 291
256 255 255 252 251 251 248 248 246 250 253 258 258 260 261 263 261 262 256 247 241 235 235 241 253 266 281 287 289 290 292 295 298 301 302 304 304 303 303 302 301 300 298 296
240 244 248 250 249 244 246 244 247 253 256 259 256 255 255 253 251 244 239 235 231 229 237 248 261 276 283 287 288 290 293 296 299 302 306 308 309 308 308 307 305 304 301 299
252 248 244 242 245 249 251 254 257 257 256 253 251 247 244 240 231 229 225 227 232 240 248 259 272 278 283 286 288 292 295 298 303 308 310 312 313 311 310 309 307 305 302 300
253 253 253 253 249 250 251 251 251 253 253 245 242 236 227 223 220 222 223 231 243 252 259 267 273 279 284 287 291 295 300 304 308 311 313 315 315 314 313 312 310 309 306 304
244 244 246 247 247 246 244 245 248 246 240 238 228 217 212 213 218 224 231 240 250 257 262 270 277 284 290 295 299 303 307 309 312 315 316 317 318 318 316 316 315 314 311 308
248 248 247 246 247 241 239 240 241 237 231 223 216 208 209 213 220 231 238 245 251 256 265 276 284 290 294 301 305 308 311 314 317 319 320 320 320 320 319 319 318 316 314 311
Height
10452 10450 10451 10454 10458 10449 10445 10440 10435 10445 10438 10468 10446 10433 10431 10422 10416 10410 10407 10406 10407 10402 10404 10403 10401 10399 10394 10391 10387 10383 10376 10371 10364 10357 10348 10341 10341 10342 10341 10339 10340 10342 10343 10342
10424 10424 10421 10433 10442 10431 10419 10409 10403 10409 10419 10419 10422 10413 10406 10404 10396 10387 10379 10380 10378 10376 10374 10370 10367 10364 10359 10357 10354 10349 10342 10335 10329 10327 10325 10316 10310 10306 10301 10303 10305 10306 10308 10309
10397 10397 10395 10409 10423 10401 10393 10389 10379 10373 10386 10392 10390 10392 10384 10379 10373 10366 10357 10353 10351 10349 10345 10345 10341 10336 10333 10331 10324 10322 10314 10306 10301 10296 10292 10290 10286 10280 10274 10273 10274 10277 10279 10281
10367 10366 10361 10389 10388 10378 10360 10361 10350 10351 10352 10356 10358 10361 10357 10355 10351 10344 10335 10327 10322 10319 10319 10315 10312 10310 10307 10304 10300 10295 10287 10283 10275 10271 10266 10263 10260 10254 10250 10250 10251 10251 10253 10256
10339 10338 10343 10361 10353 10339 10330 10343 10331 10329 10325 10327 10329 10328 10329 10327 10324 10318 10313 10307 10301 10294 10287 10287 10287 10283 10278 10276 10271 10268 10261 10256 10251 10249 10245 10242 10238 10233 10231 10230 10231 10231 10234 10237
10315 10308 10315 10337 10327 10309 10296 10316 10308 10303 10304 10305 10306 10304 10302 10299 10295 10293 10289 10287 10279 10270 10267 10266 10263 10259 10255 10252 10247 10244 10237 10234 10231 10228 10224 10222 10218 10215 10213 10212 10212 10214 10217 10217
10280 10275 10287 10306 10300 10278 10274 10290 10286 10283 10280 10279 10279 10280 10278 10274 10270 10267 10265 10263 10256 10251 10249 10245 10241 10238 10235 10231 10228 10224 10219 10213 10209 10206 10206 10204 10201 10199 10198 10198 10198 10199 10201 10203
10252 10248 10265 10279 10266 10258 10250 10256 10257 10258 10259 10258 10257 10256 10254 10249 10244 10241 10241 10239 10232 10231 10228 10224 10221 10219 10215 10210 10205 10203 10199 10194 10191 10187 10188 10187 10186 10184 10183 10184 10184 10185 10186 10188
10228 10234 10236 10243 10240 10231 10227 10228 10229 10234 10235 10238 10232 10229 10226 10226 10224 10223 10222 10219 10212 10207 10207 10204 10202 10200 10196 10191 10188 10185 10181 10176 10174 10170 10170 10170 10170 10170 10168 10169 10170 10171 10173 10175
10200 10216 10209 10211 10213 10207 10203 10204 10207 10208 10208 10207 10203 10199 10201 10204 10203 10199 10200 10200 10195 10189 10187 10185 10184 10184 10179 10175 10172 10167 10163 10160 10157 10156 10153 10153 10154 10155 10154 10154 10156 10158 10160 10162
10183 10191 10183 10192 10186 10182 10181 10186 10187 10187 10184 10183 10182 10179 10180 10182 10181 10180 10180 10183 10179 10174 10171 10170 10168 10167 10164 10159 10154 10151 10148 10144 10141 10139 10138 10138 10140 10140 10140 10140 10142 10144 10147 10150
10167 10160 10160 10174 10162 10159 10160 10161 10161 10163 10164 10161 10162 10160 10159 10164 10164 10162 10161 10163 10162 10160 10158 10156 10153 10150 10147 10143 10140 10135 10132 10130 10127 10126 10125 10125 10126 10127 10126 10128 10128 10130 10133 10137
10155 10140 10142 10149 10140 10135 10139 10140 10142 10145 10148 10148 10144 10143 10147 10144 10142 10145 10145 10145 10145 10144 10143 10141 10138 10135 10133 10129 10125 10122 10119 10117 10116 10113 10111 10112 10113 10114 10113 10112 10115 10117 10120 10123
10126 10121 10125 10125 10129 10125 10126 10124 10123 10126 10128 10129 10128 10128 10132 10128 10128 10129 10129 10130 10130 10129 10128 10127 10124 10122 10120 10116 10112 10110 10107 10106 10105 10102 10100 10100 10100 10101 10102 10101 10101 10103 10106 10109
10105 10106 10110 10110 10111 10110 10109 10108 10107 10109 10111 10112 10113 10112 10116 10114 10115 10114 10114 10116 10115 10114 10113 10112 10112 10110 10106 10104 10102 10100 10098 10095 10095 10093 10090 10089 10089 10089 10090 10091 10090 10089 10093 10095
10091 10090 10091 10094 10095 10095 10096 10096 10096 10098 10099 10098 10099 10103 10102 10101 10102 10101 10102 10104 10104 10103 10103 10102 10101 10098 10095 10094 10093 10092 10089 10087 10085 10084 10082 10080 10080 10080 10080 10080 10081 10081 10079 10079
10077 10078 10080 10080 10080 10081 10081 10082 10085 10086 10085 10087 10089 10090 10090 10091 10092 10092 10092 10092 10092 10092 10092 10091 10090 10087 10087 10086 10086 10084 10082 10080 10078 10075 10074 10073 10072 10071 10071 10071 10070 10070 10068 10066
10067 10066 10067 10067 10068 10069 10070 10072 10073 10074 10074 10076 10079 10081 10081 10081 10082 10083 10083 10084 10084 10084 10081 10081 10082 10081 10080 10080 10079 10078 10076 10074 10071 10069 10068 10067 10066 10064 10063 10062 10061 10060 10058 10056
10055 10056 10056 10057 10057 10059 10060 10061 10063 10064 10065 10065 10067 10069 10070 10072 10074 10075 10075 10074 10073 10072 10073 10075 10075 10075 10075 10074 10073 10072 10070 10068 10065 10063 10062 10061 10059 10058 10056 10054 10053 10050 10047 10045
10047 10047 10048 10049 10050 10051 10052 10053 10054 10054 10055 10055 10056 10059 10062 10063 10063 10063 10063 10063 10064 10066 10067 10068 10070 10070 10069 10068 10067 10066 10065 10062 10060 10058 10056 10053 10051 10048 10045 10042 10040 10037 10033 10030
10039 10040 10040 10041 10042 10044 10045 10046 10046 10046 10045 10046 10047 10049 10051 10053 10053 10055 10055 10056 10058 10059 10061 10062 10063 10063 10062 10062 10062 10061 10059 10057 10054 10052 10049 10046 10042 10038 10033 10029 10025 10021 10017 10013
10030 10032 10033 10034 10035 10036 10037 10038 10038 10039 10040 10042 10044 10045 10046 10046 10047 10048 10049 10051 10052 10054 10055 10056 10057 10057 10056 10056 10056 10055 10053 10051 10047 10044 10041 10037 10033 10027 10022 10016 10011 10006 10001 9997
10023 10024 10025 10026 10027 10028 10028 10029 10029 10031 10033 10035 10037 10038 10040 10041 10043 10044 10045 10046 10048 10048 10049 10051 10051 10051 10051 10051 10051 10049 10046 10043 10040 10036 10031 10027 10022 10016 10009 10004 9998 9993 9988 9983
10015 10016 10017 10018 10019 10019 10020 10021 10023 10024 10026 10029 10031 10032 10033 10035 10037 10038 10040 10041 10043 10045 10046 10046 10046 10046 10047 10046 10044 10042 10039 10035 10031 10027 10022 10017 10012 10006 9999 9993 9988 9983 9978 9973
10009 10009 10010 10012 10013 10014 10014 10015 10017 10018 10020 10023 10025 10026 10028 10029 10032 10033 10035 10037 10039 10041 10041 10041 10042 10042 10041 10040 10037 10035 10032 10028 10023 10018 10013 10008 10001 9995 9989 9983 9978 9973 9968 9963
10004 10004 10006 10006 10007 10007 10008 10010 10011 10012 10015 10017 10019 10021 10023 10025 10028 10030 10032 10034 10035 10036 10036 10036 10036 10036 10034 10032 10029 10026 10023 10020 10015 10010 10004 9997 9991 9985 9979 9973 9967 9962 9958 9953
9998 9999 10000 10000 10001 10002 10003 10004 10006 10008 10010 10012 10014 10016 10019 10022 10024 10026 10028 10030 10031 10031 10030 10030 10029 10029 10027 10025 10021 10018 10015 10010 10005 10000 9994 9988 9982 9976 9969 9964 9959 9953 9948 9943